Location: Sobotiste
(48.7170°N, 17.4000°E)
Time: 02:22:52
(UTC+02:00)

METEOR M2 - Pass Details

Date: 17 March 2026
Orbit: 817 x 824 km, 98.5° (Epoch: 13 April)

Event Time Altitude Azimuth Distance (km) Brightness Sun altitude
Rises 04:57:16 0° 10° (N) 3,373 ? -11.1°
Reaches altitude 10° 04:59:40 10° 5° (N) 2,436 ? -10.7°
Maximum altitude 05:04:52 50° 292° (WNW) 1,044 ? -9.9°
Drops below altitude 10° 05:10:01 10° 218° (SW) 2,419 ? -9.0°
Sets 05:12:24 0° 213° (SSW) 3,347 ? -8.7°
